Deering, AK

11:24 PM AKDT on March 24, 2017 (GMT -0800)
Deering (New)

Weather History for PADE - October, 2011

Change the Weather History Date:

Sunday, October 23, 2011

  Actual Average (PAOT) Record (PAOT)
Temperature  
Mean Temperature 18 °F -  
Max Temperature 27 °F 22 °F 41 °F (2002)
Min Temperature 10 °F 12 °F -8 °F (1970)
Degree Days  
Heating Degree Days 47    
Moisture  
Dew Point 16 °F    
Average Humidity 82    
Maximum Humidity 92    
Minimum Humidity 74    
Precipitation  
Precipitation 0.00 in - - ()
Sea Level Pressure  
Sea Level Pressure 29.58 in    
Wind  
Wind Speed 8 mph (ENE)    
Max Wind Speed 18 mph    
Max Gust Speed 26 mph    
Visibility 8 miles    
Events Snow    
Averages and records for this station are not official NWS values.
T = Trace of Precipitation, MM = Missing Value Source: NWS Daily Summary

Daily Weather History Graph

Daily Weather History Graph

Search for Another Location

Airport or City:

Trip Planner

Search our weather history database for the weather conditions in past years. The results will help you decide how hot, cold, wet, or windy it might be!

Date:

Astronomy

Oct. 23, 2011 Rise Set
Actual Time 10:14 AM AKDT 6:54 PM AKDT
Civil Twilight 9:20 AM AKDT 7:49 PM AKDT
Nautical Twilight 8:20 AM AKDT 8:49 PM AKDT
Astronomical Twilight 7:20 AM AKDT 9:48 PM AKDT
Moon 5:21 AM AKDT (10/23) 5:50 PM AKDT (10/23)
Length of Visible Light 10h 29m
Length of Day
8h 39m
Waning Crescent, 13% of the Moon is Illuminated
Oct 23
Waning Crescent
Oct 26
New
Nov 2
First Quarter
Nov 10
Full
Nov 18
Last Quarter

Hourly Weather History & Observations

Time (AKDT) Temp. Windchill Dew Point Humidity Pressure Visibility Wind Dir Wind Speed Gust Speed Precip Events Conditions
12:24 AM 10.4 °F 4.0 °F 8.6 °F 92% 29.65 in 10.0 mi SW 3.5 mph - N/A   Mostly Cloudy
12:40 AM 12.2 °F 2.9 °F 8.6 °F 85% 29.65 in 10.0 mi SSW 5.8 mph - N/A   Scattered Clouds
12:53 AM 10.9 °F 0.2 °F 7.0 °F 84% 29.66 in 10.0 mi SSW 6.9 mph - N/A   Partly Cloudy
1:53 AM 10.9 °F 4.7 °F 7.0 °F 84% 29.66 in 10.0 mi SW 3.5 mph - N/A   Scattered Clouds
2:12 AM 10.4 °F - 6.8 °F 85% 29.66 in 10.0 mi Calm Calm - N/A   Mostly Cloudy
2:39 AM 10.4 °F - 6.8 °F 85% 29.66 in 10.0 mi Calm Calm - N/A   Scattered Clouds
2:53 AM 10.0 °F - 6.1 °F 84% 29.66 in 10.0 mi Calm Calm - N/A   Scattered Clouds
3:10 AM 12.2 °F - 8.6 °F 85% 29.66 in 10.0 mi Calm Calm - N/A   Mostly Cloudy
3:41 AM 17.6 °F 8.2 °F 14.0 °F 86% 29.66 in 10.0 mi East 6.9 mph - N/A   Scattered Clouds
3:53 AM 18.0 °F 9.8 °F 14.0 °F 84% 29.66 in 10.0 mi East 5.8 mph - N/A   Partly Cloudy
4:53 AM 14.0 °F - 10.0 °F 84% 29.65 in 10.0 mi Calm Calm - N/A   Clear
6:53 AM 19.9 °F 7.3 °F 14.0 °F 78% 29.65 in 10.0 mi ENE 12.7 mph - N/A   Clear
7:53 AM 19.0 °F 10.0 °F 12.9 °F 77% 29.64 in 10.0 mi East 6.9 mph - N/A   Partly Cloudy
8:53 AM 16.0 °F 8.8 °F 10.9 °F 81% 29.63 in 10.0 mi ESE 4.6 mph - N/A   Partly Cloudy
9:53 AM 19.0 °F 9.0 °F 15.1 °F 85% 29.62 in 10.0 mi East 8.1 mph - N/A   Partly Cloudy
10:53 AM 17.1 °F 8.7 °F 12.0 °F 81% 29.62 in 10.0 mi SE 5.8 mph - N/A   Overcast
11:53 AM 21.9 °F 11.7 °F 18.0 °F 85% 29.62 in 10.0 mi East 9.2 mph - N/A   Overcast
12:53 PM 23.0 °F 12.4 °F 19.0 °F 85% 29.61 in 10.0 mi ESE 10.4 mph - N/A   Overcast
1:49 PM 26.6 °F 14.3 °F 19.4 °F 74% 29.59 in 10.0 mi NE 16.1 mph - N/A   Overcast
1:53 PM 26.1 °F 13.6 °F 19.0 °F 75% 29.59 in 10.0 mi ENE 16.1 mph - N/A   Overcast
2:53 PM 26.1 °F 12.7 °F 19.9 °F 78% 29.58 in 10.0 mi NE 18.4 mph - N/A   Overcast
3:53 PM 26.1 °F 13.1 °F 19.9 °F 78% 29.56 in 10.0 mi ENE 17.3 mph 26.5 mph N/A   Overcast
4:13 PM 26.6 °F 14.3 °F 21.2 °F 80% 29.55 in 2.5 mi ENE 16.1 mph - 0.00 in Snow Light Snow
4:37 PM 26.6 °F 13.8 °F 21.2 °F 80% 29.55 in 1.8 mi NE 17.3 mph - 0.00 in Snow Light Snow
4:46 PM 26.6 °F 13.8 °F 21.2 °F 80% 29.54 in 2.0 mi ENE 17.3 mph - 0.00 in Snow Light Snow
4:53 PM 26.1 °F 13.1 °F 21.9 °F 84% 29.54 in 2.0 mi ENE 17.3 mph - 0.00 in Snow Light Snow
5:03 PM 26.6 °F 14.3 °F 21.2 °F 80% 29.54 in 2.5 mi ENE 16.1 mph - 0.00 in Snow Light Snow
5:11 PM 26.6 °F 14.3 °F 21.2 °F 80% 29.53 in 3.0 mi ENE 16.1 mph - 0.00 in Snow Light Snow
5:21 PM 26.6 °F 13.8 °F 21.2 °F 80% 29.53 in 5.0 mi ENE 17.3 mph - 0.00 in Snow Light Snow
5:53 PM 26.1 °F 15.0 °F 21.0 °F 81% 29.53 in 10.0 mi ENE 12.7 mph - 0.00 in   Overcast
6:53 PM 26.1 °F 14.0 °F 21.0 °F 81% 29.52 in 9.0 mi ENE 15.0 mph - N/A   Overcast
7:46 PM 26.6 °F 15.2 °F 21.2 °F 80% 29.51 in 10.0 mi ENE 13.8 mph - 0.00 in   Overcast
7:53 PM 26.1 °F 14.5 °F 21.0 °F 81% 29.51 in 10.0 mi ENE 13.8 mph - 0.00 in   Overcast
8:23 PM 26.6 °F 15.7 °F 21.2 °F 80% 29.50 in 10.0 mi ENE 12.7 mph - N/A   Overcast
8:40 PM 26.6 °F 15.2 °F 21.2 °F 80% 29.49 in 7.0 mi ENE 13.8 mph - 0.00 in Snow Light Snow
8:53 PM 26.1 °F 14.5 °F 21.0 °F 81% 29.49 in 6.0 mi ENE 13.8 mph - 0.00 in Snow Light Snow
9:40 PM 26.6 °F 14.7 °F 21.2 °F 80% 29.48 in 10.0 mi ENE 15.0 mph - 0.00 in   Overcast
9:53 PM 26.1 °F 14.0 °F 21.0 °F 81% 29.48 in 10.0 mi ENE 15.0 mph - 0.00 in   Overcast
10:53 PM 26.1 °F 15.0 °F 21.9 °F 84% 29.47 in 7.0 mi ENE 12.7 mph - 0.00 in Snow Light Snow
11:53 PM 26.1 °F 16.2 °F 21.0 °F 81% 29.46 in 10.0 mi East 10.4 mph - 0.00 in   Overcast